Regional Weather Roundup
Issued by NWS Green Bay, WI

Home | Current Version | Previous Version | Graphics & Text | Print | Product List | Glossary Off
Versions: 1 2 3 4 5 6 7 8 9 10 11 12 13 14 15 16 17 18 19 20 21 22 23 24 25 26 27 28 29 30 31 32 33 34 35 36 37 38 39 40 41 42 43 44 45 46 47 48 49 50

000
ASUS43 KGRB 251359
RWRGRB

NORTH-CENTRAL AND NORTHEAST WISCONSIN REGIONAL WEATHER ROUNDUP
NATIONAL WEATHER SERVICE GREEN BAY WI
800 AM CST THU DEC 25 2014

WIZ005-009-010>012-018-019-251500-
NORTH CENTRAL WISCONSIN

CITY           SKY/WX    TMP DP  RH WIND       PRES   REMARKS
IRONWOOD       CLOUDY    30  28  93 SW10      29.57R
MANITOWISH WTR NOT AVBL
ARBOR VITAE    NOT AVBL
EAGLE RIVER    NOT AVBL
LAND O LAKES   NOT AVBL
RHINELANDER    CLOUDY    29  26  89 SW12      29.64R
PHILLIPS       NOT AVBL
ANTIGO         NOT AVBL
TOMAHAWK       NOT AVBL
MERRILL        NOT AVBL
$$

WIZ013-073-251500-
NORTHEAST WISCONSIN

CITY           SKY/WX    TMP DP  RH WIND       PRES   REMARKS
IRON MOUNTAIN  CLOUDY    32  27  81 W8        29.63R
MARINETTE      CLOUDY    32  28  86 SW8       29.69R
$$

WIZ017-030-035>037-045-251500-
CENTRAL WISCONSIN

CITY           SKY/WX    TMP DP  RH WIND       PRES   REMARKS
MEDFORD        NOT AVBL
WAUSAU         CLOUDY    31  27  85 SW9       29.68R
MOSINEE        CLOUDY    30  28  93 SW8       29.70R
MARSHFIELD     CLOUDY    31  27  85 SW12      29.70R
WISC RAPIDS    CLOUDY    31  25  78 SW9       29.74R
STEVENS POINT  NOT AVBL
WAUPACA        NOT AVBL
SHAWANO        NOT AVBL
CLINTONVILLE   NOT AVBL
$$

WIZ038-039-048-051-251500-
FOX VALLEY

CITY           SKY/WX    TMP DP  RH WIND       PRES   REMARKS
NWS GREEN BAY  CLOUDY    34  30  85 SW9       29.73R
APPLETON       CLOUDY    34  30  86 SW10      29.73R
OSHKOSH        CLOUDY    34  27  75 VRB5      29.75R
FOND DU LAC    CLOUDY    34  28  79 SW10      29.77R
$$

WIZ022-050-052-251500-
EAST CENTRAL WISCONSIN

CITY           SKY/WX    TMP DP  RH WIND       PRES   REMARKS
STURGEON BAY   CLOUDY    32  27  80 SW12      29.72R
MANITOWOC      NOT AVBL
SHEBOYGAN      CLOUDY    34  28  79 SW12      29.77R
$$

LMZ563-521-522-541>543-251500-
LAKESHORE

STATION/POSITION TIME  TEMP    WIND        PRES    VSBY  WAVE
                       AIR SEA DIR/SP/G                  HT/PER
                 (UTC) (F)     (DEG/KT/KT) (MB)    (MI)  (FT/S)
SHEBOYGAN LKSHOR 1300   36 37  240/ 13/ 15 1008.4R
KEWAUNEE LKSHORE 1300   34     240/  8/ 13 1006.0R
ALGOMA MARINA    1300          290/ 11/ 17   N/A
TWO RIVERS CG    1300   34                 1007.3    3/8   1
NORTHPORT PIER   1300   33     240/  2/ 11 1004.4R
SISTER BAY LKSHO 1300          220/ 11/ 14   N/A
STURGEON BAY CG  1300   32     240/  4     1005.6      6   1
CHAMBERS ISLAND  1300   34     200/  7/ 15 1004.7R
MENOMINEE LKSHOR 1300   32     220/ 10/ 14 1006.2R
$$



USA.gov is the U.S. government's official web portal to all federal, state and local government web resources and services.